Regional Weather Roundup
Issued by NWS Northern Indiana

Home | Current Version | Previous Version | Text Only | Print | Product List | Glossary Off
Versions: 1 2 3 4 5 6 7 8 9 10 11 12 13 14 15 16 17 18 19 20 21 22 23 24 25 26 27 28 29 30 31 32 33 34 35 36 37 38 39 40 41 42 43 44 45 46 47 48 49 50

000
ASUS43 KIWX 240310
RWRIWX

KIWX WEATHER ROUNDUP
NATIONAL WEATHER SERVICE NORTHERN INDIANA
1000 PM EST SUN NOV 23 2014

NOTE: "FAIR" INDICATES FEW OR NO CLOUDS BELOW 12,000 FEET WITH NO
SIGNIFICANT WEATHER AND/OR OBSTRUCTIONS TO VISIBILITY.

* THESE STATIONS ARE NOT UNDER NWS QUALITY CONTROL. THEY ALSO MAY NOT
  REPORT WEATHER SUCH AS PRECIPITATION OR FOG.

INZ001>027-240400-
NORTHERN INDIANA

CITY           SKY/WX    TMP DP  RH WIND       PRES   REMARKS
GARY*          RAIN      53  51  94 SE7       29.21F
VALPARAISO     LGT RAIN  50  49  96 E7        29.22F FOG
MICHIGAN CITY* RAIN      50  50 100 SE5       29.22F
LAPORTE*       RAIN     N/A N/A N/A SE6       29.23F
KNOX*          CLOUDY    50  49  95 SE8       29.22F
SOUTH BEND     RAIN      51  49  92 SE12      29.25F FOG
GOSHEN         LGT RAIN  57  48  72 SE10      29.25F
MONTICELLO*    RAIN      51  51  99 CALM      29.21F
LOGANSPORT*    RAIN      52  50  93 SE7       29.22F
ROCHESTER*     RAIN      54  54 100 SE7       29.22F
WARSAW*        RAIN      50  50 100 SE7       29.24F
ANGOLA*        CLOUDY    48  39  71 SE10      29.26F
FORT WAYNE     RAIN      52  51  97 SE10      29.26F FOG
HUNTINGTON*    RAIN      52  51  98 SE8       29.23F
PERU/GRISSOM   RAIN      52  52 100 SE9       29.20F FOG
MARION*        RAIN     N/A N/A N/A SE14      29.23F

$$
INZ028>050-240400-
CENTRAL INDIANA

CITY           SKY/WX    TMP DP  RH WIND       PRES   REMARKS
LAFAYETTE      RAIN      52  51  97 SE5       29.20F FOG
KOKOMO*        CLOUDY    52  52 100 SE10      29.21F
MUNCIE*        RAIN      55  53  93 S14G23    29.24F FOG
INDIANAPOLIS   RAIN      52  52 100 SE14G24   29.19F FOG

$$
MIZ043>046-050>051-056>058-064>065-071>073-077>080-240400-
SOUTHWEST LOWER MICHIGAN

CITY           SKY/WX    TMP DP  RH WIND       PRES   REMARKS
BATTLE CREEK   LGT RAIN  52  47  83 SE12      29.29F
BENTON HARBOR  LGT RAIN  50  49  96 E10       29.23F FOG
COLDWATER*     RAIN      51  50  96 SE13G24   29.27F
HILLSDALE*     HVY RAIN  50  50 100 SE14G20   29.30F
HOLLAND        LGT RAIN  51  50  96 E9        29.26F
GRAND RAPIDS   HVY RAIN  50  48  93 SE8       29.30F FOG
KALAMAZOO      LGT RAIN  50  48  93 SE8       29.26F FOG
STURGIS*       RAIN      48  48 100 SE10G17   29.26F
THREE RIVERS*  RAIN      50  49  93 SE5       29.27F

$$
OHZ001>008-015>018-024>025-240400-
NORTHWEST OHIO

CITY           SKY/WX    TMP DP  RH WIND       PRES   REMARKS
WAUSEON*       LGT RAIN  52  52 100 SE21G28   29.31F
DEFIANCE       RAIN      52  50  93 SE13G21   29.29F FOG
FINDLAY        LGT RAIN  54  50  86 SE22G32   29.32F
TOLEDO EXPRESS RAIN      51  50  96 SE10G20   29.34F FOG
TOLEDO METCALF LGT RAIN  53  50  89 SE16      29.36F
LIMA           LGT RAIN  54  51  90 SE22G35   29.30F

$$
AND FOR LAKE MICHIGAN COASTAL AND OPEN LAKE BUOY OBSERVATIONS

STATION/POSITION TEMP    WIND        PRES    VSBY  WAVE
                 AIR SEA DIR/SP/G                  HT/PER
                 (F)     (DEG/KT/KT) (MB)    (MI)  (FT/S)
CALUMET HARBOR    51     130/  6/ 10  988.5F
MICHIGAN CITY     51     100/ 10/ 13   N/A
SAINT JOSEPH      51     130/  1/  7  990.2F
SOUTH LAKE BUOY   46 42  110/ 12/ 12  990.4F         1/ 3

$$
&&



USA.gov is the U.S. government's official web portal to all federal, state and local government web resources and services.